Flag for Japan Weather past 2 weeks in Okayama, Japan

Now
64 °F

Mild.


Feels Like: 64 °F
Forecast: 51 / 79 °F
Wind: 2 mph from Southwest

Location: Takamatsu

Current Time: Sep 23, 2014 at 6:20:58 AM

Latest Report: Sep 23, 2014 at 5:00 AM


Visibility: N/A

Pressure: 30.14 "Hg

Humidity: 81%

Dew point: 58 °F

Location of OkayamaLocation

Historic Weather in Okayama — Graph

°F

Okayama temperature yesterday

Maximum temperature yesterday: 82 °F (at 3:00 PM)
Minimum temperature yesterday: 69 °F (at 5:00 AM)
Average temperature yesterday: 74 °F

Past Weeks' High & Low Weather Summary

 TemperatureHumidityPressure
High87 °F (Sep 9, 3:00 PM)92% (Sep 17, 11:00 PM)30.14 "Hg (Sep 17, 11:00 PM)
Low62 °F (Sep 21, 6:00 AM)30% (Sep 9, 2:00 PM)29.62 "Hg (Sep 8, 3:00 PM)
Average74 °F64%29.91 "Hg
* Reported Sep 8 5:00 AM — Sep 23 5:00 AM, Okayama, Weather by CustomWeather, © 2014

Note: Actual official high and low records may vary slightly from our data, if they occured in-between our weather recording intervals... More about our weather records

Advertising

Okayama weather history for previous 24 hours

 ConditionsComfort  
Time TempWeatherWind HumidityBarometerVisibility
5:00 AM
Sep 23
64 °FMild.2 mph81%30.14 "HgN/A
4:00 AM65 °FMild.3 mph79%30.13 "HgN/A
3:00 AM66 °FPassing clouds.2 mph75%30.12 "Hg12 mi
2:00 AM66 °FMild.1 mph75%30.11 "HgN/A
1:00 AM68 °FMild.2 mph71%30.11 "HgN/A
12:00 AM70 °FMild.6 mph66%30.11 "HgN/A
11:00 PM
Sep 22
71 °FMild.7 mph60%30.11 "HgN/A
10:00 PM71 °FMild.2 mph66%30.11 "HgN/A
9:00 PM72 °FPassing clouds.5 mph64%30.09 "Hg9 mi
8:00 PM74 °FMild.3 mph60%30.08 "HgN/A
7:00 PM75 °FMild.5 mph59%30.05 "HgN/A
6:00 PM78 °FOvercast.6 mph46%30.03 "Hg12 mi
5:00 PM80 °FWarm.5 mph42%30.02 "HgN/A
4:00 PM80 °FWarm.3 mph40%30.02 "HgN/A
3:00 PM82 °FOvercast.3 mph40%30.02 "Hg16 mi
2:00 PM81 °FWarm.5 mph50%30.01 "HgN/A
1:00 PM80 °FWarm.6 mph50%30.03 "HgN/A
12:00 PM78 °FPartly sunny.6 mph55%30.05 "Hg16 mi
11:00 AM76 °FMild.7 mph66%30.06 "HgN/A
10:00 AM76 °FMild.6 mph67%30.07 "HgN/A
9:00 AM74 °FOvercast.2 mph70%30.07 "Hg6 mi
8:00 AM71 °FMild.1 mph77%30.06 "HgN/A
7:00 AM69 °FMild.1 mph81%30.06 "HgN/A
6:00 AM69 °FLight rain. Overcast.5 mph82%30.06 "Hg6 mi
Weather by CustomWeather, © 2014

See weather overviewHow to use our weather pages